Time,TemperatureF,DewpointF,PressureIn,WindDirection,WindDirectionDegrees,WindSpeedMPH,WindSpeedGustMPH,Humidity,HourlyPrecipIn,Conditions,Clouds,dailyrainin,SoftwareType,DateUTC
2013-04-03 00:02:00,54.0,45.0,29.66,ENE,61,6.0,16.0,71,0.01,,,0.13,,2013-04-03 05:02:00,
2013-04-03 00:12:00,54.0,45.0,29.66,ENE,61,6.0,16.0,71,0.01,,,0.13,,2013-04-03 05:12:00,
2013-04-03 00:22:00,54.0,46.0,29.64,ENE,67,6.0,14.0,73,0.00,,,0.13,,2013-04-03 05:22:00,
2013-04-03 00:32:00,53.0,45.0,29.63,East,82,5.0,15.0,73,0.00,,,0.13,,2013-04-03 05:32:00,
2013-04-03 00:42:00,53.0,45.0,29.63,East,82,5.0,15.0,73,0.00,,,0.13,,2013-04-03 05:42:00,
2013-04-03 00:52:00,53.0,45.0,29.64,ESE,109,5.0,12.0,75,0.00,,,0.13,,2013-04-03 05:52:00,
2013-04-03 01:02:00,52.0,46.0,29.62,NE,55,6.0,12.0,81,0.00,,,0.13,,2013-04-03 06:02:00,
2013-04-03 01:12:00,52.0,46.0,29.62,NE,55,6.0,12.0,81,0.00,,,0.13,,2013-04-03 06:12:00,
2013-04-03 01:22:00,51.0,46.0,29.62,East,92,6.0,14.0,82,0.00,,,0.13,,2013-04-03 06:22:00,
2013-04-03 01:32:00,51.0,45.0,29.62,ENE,59,6.0,13.0,81,0.00,,,0.13,,2013-04-03 06:32:00,
2013-04-03 01:42:00,51.0,45.0,29.62,ENE,59,6.0,13.0,81,0.00,,,0.13,,2013-04-03 06:42:00,
2013-04-03 01:52:00,51.0,45.0,29.62,ENE,67,4.0,9.0,81,0.00,,,0.13,,2013-04-03 06:52:00,
2013-04-03 02:02:00,51.0,45.0,29.63,ENE,74,4.0,10.0,81,0.00,,,0.13,,2013-04-03 07:02:00,
2013-04-03 02:12:00,51.0,45.0,29.63,ENE,74,4.0,10.0,81,0.00,,,0.13,,2013-04-03 07:12:00,
2013-04-03 02:23:00,52.0,46.0,29.67,NW,312,3.0,11.0,81,0.00,,,0.13,,2013-04-03 07:23:00,
2013-04-03 02:32:00,52.0,47.0,29.68,NNW,329,3.0,9.0,82,0.00,,,0.13,,2013-04-03 07:32:00,
2013-04-03 02:42:00,52.0,47.0,29.68,NNW,329,3.0,9.0,82,0.00,,,0.13,,2013-04-03 07:42:00,
2013-04-03 02:52:00,51.0,47.0,29.69,NNW,331,1.0,8.0,87,0.10,,,0.23,,2013-04-03 07:52:00,
2013-04-03 03:03:00,51.0,48.0,29.70,West,273,1.0,3.0,90,0.18,,,0.31,,2013-04-03 08:03:00,
2013-04-03 03:12:00,51.0,48.0,29.70,West,273,1.0,3.0,90,0.18,,,0.31,,2013-04-03 08:12:00,
2013-04-03 03:22:00,50.0,48.0,29.71,West,272,2.0,6.0,92,0.24,,,0.37,,2013-04-03 08:22:00,
2013-04-03 03:32:00,50.0,48.0,29.72,West,277,3.0,8.0,94,0.38,,,0.51,,2013-04-03 08:32:00,
2013-04-03 03:42:00,50.0,48.0,29.72,West,277,3.0,8.0,94,0.38,,,0.51,,2013-04-03 08:42:00,
2013-04-03 03:52:00,50.0,48.0,29.71,West,281,3.0,5.0,94,0.42,,,0.65,,2013-04-03 08:52:00,
2013-04-03 04:02:00,50.0,49.0,29.71,NW,312,0.0,5.0,95,0.42,,,0.74,,2013-04-03 09:02:00,
2013-04-03 04:12:00,50.0,49.0,29.71,NW,312,0.0,5.0,95,0.42,,,0.74,,2013-04-03 09:12:00,
2013-04-03 04:22:00,50.0,49.0,29.70,NNW,348,1.0,4.0,95,0.43,,,0.80,,2013-04-03 09:22:00,
2013-04-03 04:33:00,50.0,49.0,29.70,North,355,1.0,5.0,95,0.33,,,0.85,,2013-04-03 09:33:00,
2013-04-03 04:43:00,50.0,49.0,29.70,North,355,1.0,5.0,95,0.33,,,0.85,,2013-04-03 09:43:00,
2013-04-03 04:53:00,50.0,49.0,29.69,NW,312,1.0,7.0,95,0.23,,,0.88,,2013-04-03 09:53:00,
2013-04-03 05:03:00,50.0,49.0,29.69,NE,43,1.0,6.0,95,0.19,,,0.93,,2013-04-03 10:03:00,
2013-04-03 05:12:00,50.0,49.0,29.69,NE,43,1.0,6.0,95,0.19,,,0.93,,2013-04-03 10:12:00,
2013-04-03 05:22:00,50.0,49.0,29.68,East,80,2.0,8.0,95,0.17,,,0.97,,2013-04-03 10:22:00,
2013-04-03 05:33:00,49.0,48.0,29.66,NE,34,4.0,10.0,95,0.18,,,1.03,,2013-04-03 10:33:00,
2013-04-03 05:43:00,49.0,48.0,29.66,NE,34,4.0,10.0,95,0.18,,,1.03,,2013-04-03 10:43:00,
2013-04-03 05:52:00,49.0,48.0,29.64,East,89,5.0,10.0,96,0.21,,,1.09,,2013-04-03 10:52:00,
2013-04-03 06:02:00,49.0,48.0,29.61,East,88,9.0,16.0,96,0.22,,,1.14,,2013-04-03 11:02:00,
2013-04-03 06:12:00,49.0,48.0,29.61,East,88,9.0,16.0,96,0.22,,,1.14,,2013-04-03 11:12:00,
2013-04-03 06:22:00,49.0,48.0,29.59,ENE,74,8.0,18.0,96,0.20,,,1.18,,2013-04-03 11:22:00,
2013-04-03 06:32:00,49.0,48.0,29.59,ENE,61,9.0,16.0,96,0.16,,,1.19,,2013-04-03 11:32:00,
2013-04-03 06:42:00,49.0,48.0,29.59,ENE,61,9.0,16.0,96,0.16,,,1.19,,2013-04-03 11:42:00,
2013-04-03 06:52:00,49.0,48.0,29.59,NE,35,7.0,17.0,95,0.09,,,1.19,,2013-04-03 11:52:00,
2013-04-03 07:02:00,49.0,48.0,29.63,NW,306,1.0,13.0,95,0.03,,,1.19,,2013-04-03 12:02:00,
2013-04-03 07:13:00,49.0,48.0,29.63,NW,306,1.0,13.0,95,0.03,,,1.19,,2013-04-03 12:13:00,
2013-04-03 07:22:00,49.0,48.0,29.67,NW,309,4.0,8.0,95,0.02,,,1.20,,2013-04-03 12:22:00,
2013-04-03 07:32:00,49.0,48.0,29.69,WNW,303,4.0,9.0,95,0.01,,,1.20,,2013-04-03 12:32:00,
2013-04-03 07:42:00,49.0,48.0,29.69,WNW,303,4.0,9.0,95,0.01,,,1.20,,2013-04-03 12:42:00,
2013-04-03 07:52:00,49.0,48.0,29.70,NNW,335,3.0,7.0,95,0.01,,,1.20,,2013-04-03 12:52:00,
2013-04-03 08:02:00,49.0,48.0,29.72,NW,318,3.0,8.0,95,0.01,,,1.20,,2013-04-03 13:02:00,
2013-04-03 08:12:00,49.0,48.0,29.72,NW,318,3.0,8.0,95,0.01,,,1.20,,2013-04-03 13:12:00,
2013-04-03 08:22:00,49.0,47.0,29.72,NW,319,4.0,12.0,94,0.00,,,1.20,,2013-04-03 13:22:00,
2013-04-03 08:32:00,48.0,46.0,29.72,NNE,12,4.0,9.0,94,0.00,,,1.20,,2013-04-03 13:32:00,
2013-04-03 08:42:00,48.0,46.0,29.72,NNE,12,4.0,9.0,94,0.00,,,1.20,,2013-04-03 13:42:00,
2013-04-03 08:52:00,47.0,45.0,29.72,NNE,23,3.0,9.0,94,0.00,,,1.20,,2013-04-03 13:52:00,
2013-04-03 09:02:00,47.0,45.0,29.72,NNE,12,3.0,8.0,94,0.00,,,1.20,,2013-04-03 14:02:00,
2013-04-03 09:12:00,47.0,45.0,29.72,NNE,12,3.0,8.0,94,0.00,,,1.20,,2013-04-03 14:12:00,
2013-04-03 09:22:00,47.0,45.0,29.74,NNE,31,2.0,7.0,94,0.00,,,1.20,,2013-04-03 14:22:00,
2013-04-03 09:32:00,47.0,45.0,29.74,NE,39,2.0,6.0,94,0.00,,,1.20,,2013-04-03 14:32:00,
2013-04-03 09:42:00,47.0,45.0,29.74,NE,39,2.0,6.0,94,0.00,,,1.20,,2013-04-03 14:42:00,
2013-04-03 09:52:00,47.0,45.0,29.75,NNE,15,1.0,9.0,94,0.00,,,1.20,,2013-04-03 14:52:00,
2013-04-03 10:02:00,47.0,45.0,29.75,North,355,2.0,8.0,94,0.00,,,1.20,,2013-04-03 15:02:00,
2013-04-03 10:12:00,47.0,45.0,29.75,North,355,2.0,8.0,94,0.00,,,1.20,,2013-04-03 15:12:00,
2013-04-03 10:23:00,47.0,45.0,29.76,NE,40,2.0,8.0,94,0.00,,,1.20,,2013-04-03 15:23:00,
2013-04-03 10:33:00,47.0,45.0,29.76,North,360,1.0,6.0,94,0.00,,,1.20,,2013-04-03 15:33:00,
2013-04-03 10:42:00,47.0,45.0,29.76,North,360,1.0,6.0,94,0.00,,,1.20,,2013-04-03 15:42:00,
2013-04-03 10:53:00,47.0,45.0,29.75,NE,42,3.0,13.0,93,0.00,,,1.20,,2013-04-03 15:53:00,
2013-04-03 11:03:00,47.0,45.0,29.76,NNE,15,4.0,8.0,93,0.00,,,1.20,,2013-04-03 16:03:00,
2013-04-03 11:12:00,47.0,45.0,29.76,NNE,15,4.0,8.0,93,0.00,,,1.20,,2013-04-03 16:12:00,
2013-04-03 11:24:00,46.0,44.0,29.76,ENE,66,1.0,8.0,93,0.00,,,1.20,,2013-04-03 16:24:00,
2013-04-03 11:32:00,46.0,44.0,29.77,NNE,26,3.0,9.0,93,0.00,,,1.20,,2013-04-03 16:32:00,
2013-04-03 11:43:00,46.0,44.0,29.77,NNE,26,3.0,9.0,93,0.00,,,1.20,,2013-04-03 16:43:00,
2013-04-03 11:52:00,47.0,45.0,29.78,North,355,2.0,8.0,92,0.00,,,1.20,,2013-04-03 16:52:00,
2013-04-03 12:03:00,47.0,45.0,29.78,NNW,346,1.0,7.0,92,0.00,,,1.20,,2013-04-03 17:03:00,
2013-04-03 12:13:00,47.0,45.0,29.78,NNW,346,1.0,7.0,92,0.00,,,1.20,,2013-04-03 17:13:00,
2013-04-03 12:23:00,47.0,45.0,29.78,North,355,1.0,6.0,92,0.00,,,1.20,,2013-04-03 17:23:00,
2013-04-03 12:33:00,47.0,45.0,29.77,NNW,346,0.0,8.0,91,0.00,,,1.20,,2013-04-03 17:33:00,
2013-04-03 12:46:00,47.0,45.0,29.77,NNW,346,0.0,8.0,91,0.00,,,1.20,,2013-04-03 17:46:00,
2013-04-03 12:53:00,47.0,45.0,29.77,NNW,346,0.0,8.0,91,0.00,,,1.20,,2013-04-03 17:53:00,
2013-04-03 13:02:00,47.0,45.0,29.76,WNW,303,1.0,9.0,92,0.00,,,1.20,,2013-04-03 18:02:00,
2013-04-03 13:13:00,47.0,45.0,29.76,WNW,303,1.0,9.0,92,0.00,,,1.20,,2013-04-03 18:13:00,
2013-04-03 13:22:00,47.0,45.0,29.76,NNE,13,3.0,7.0,91,0.00,,,1.20,,2013-04-03 18:22:00,
2013-04-03 13:33:00,47.0,45.0,29.76,NNE,13,3.0,7.0,91,0.00,,,1.20,,2013-04-03 18:33:00,
2013-04-03 13:43:00,47.0,45.0,29.76,NNE,13,3.0,7.0,91,0.00,,,1.20,,2013-04-03 18:43:00,
2013-04-03 13:52:00,47.0,45.0,29.75,North,355,3.0,10.0,92,0.00,,,1.20,,2013-04-03 18:52:00,
2013-04-03 14:03:00,48.0,45.0,29.76,NW,322,2.0,7.0,91,0.00,,,1.20,,2013-04-03 19:03:00,
2013-04-03 14:12:00,48.0,45.0,29.76,NW,322,2.0,7.0,91,0.00,,,1.20,,2013-04-03 19:12:00,
2013-04-03 14:22:00,48.0,45.0,29.76,NW,322,2.0,7.0,91,0.00,,,1.20,,2013-04-03 19:22:00,
2013-04-03 14:32:00,48.0,45.0,29.74,ENE,59,1.0,6.0,90,0.00,,,1.09,,2013-04-03 19:32:00,
2013-04-03 14:42:00,48.0,45.0,29.74,ENE,59,1.0,6.0,90,0.00,,,1.09,,2013-04-03 19:42:00,
2013-04-03 14:52:00,47.0,45.0,29.75,NNE,13,2.0,8.0,91,0.00,,,1.09,,2013-04-03 19:52:00,
2013-04-03 15:02:00,47.0,45.0,29.75,NNE,16,1.0,7.0,91,0.00,,,1.09,,2013-04-03 20:02:00,
2013-04-03 15:12:00,47.0,45.0,29.75,NNE,16,1.0,7.0,91,0.00,,,1.09,,2013-04-03 20:12:00,
2013-04-03 15:23:00,47.0,45.0,29.74,NNE,28,2.0,7.0,91,0.00,,,1.09,,2013-04-03 20:23:00,
2013-04-03 15:32:00,47.0,45.0,29.74,North,350,1.0,7.0,92,0.00,,,1.09,,2013-04-03 20:32:00,
2013-04-03 15:42:00,47.0,45.0,29.74,North,350,1.0,7.0,92,0.00,,,1.09,,2013-04-03 20:42:00,
2013-04-03 15:52:00,47.0,45.0,29.76,NW,322,2.0,6.0,91,0.00,,,1.09,,2013-04-03 20:52:00,
2013-04-03 16:02:00,47.0,45.0,29.76,NNW,329,1.0,5.0,92,0.00,,,1.09,,2013-04-03 21:02:00,
2013-04-03 16:12:00,47.0,45.0,29.76,NNW,329,1.0,5.0,92,0.00,,,1.09,,2013-04-03 21:12:00,
2013-04-03 16:22:00,47.0,45.0,29.77,NW,304,2.0,7.0,93,0.00,,,1.09,,2013-04-03 21:22:00,
2013-04-03 16:33:00,47.0,45.0,29.77,NNW,335,2.0,8.0,94,0.00,,,1.08,,2013-04-03 21:33:00,
2013-04-03 16:42:00,47.0,45.0,29.77,NNW,335,2.0,8.0,94,0.00,,,1.08,,2013-04-03 21:42:00,
2013-04-03 16:52:00,47.0,45.0,29.76,NW,320,3.0,7.0,94,0.00,,,1.08,,2013-04-03 21:52:00,
2013-04-03 17:02:00,47.0,46.0,29.75,NNW,336,3.0,8.0,95,0.01,,,1.09,,2013-04-03 22:02:00,
2013-04-03 17:12:00,47.0,46.0,29.75,NNW,336,3.0,8.0,95,0.01,,,1.09,,2013-04-03 22:12:00,
2013-04-03 17:22:00,47.0,45.0,29.75,NNW,331,3.0,7.0,94,0.01,,,1.09,,2013-04-03 22:22:00,
2013-04-03 17:32:00,47.0,46.0,29.74,NE,36,3.0,7.0,95,0.01,,,1.09,,2013-04-03 22:32:00,
2013-04-03 17:42:00,47.0,46.0,29.74,NE,36,3.0,7.0,95,0.01,,,1.09,,2013-04-03 22:42:00,
2013-04-03 17:52:00,47.0,46.0,29.74,NNE,32,1.0,5.0,95,0.01,,,1.09,,2013-04-03 22:52:00,
2013-04-03 18:02:00,47.0,46.0,29.74,NNE,31,0.0,4.0,95,0.03,,,1.12,,2013-04-03 23:02:00,
2013-04-03 18:12:00,47.0,46.0,29.74,NNE,31,0.0,4.0,95,0.03,,,1.12,,2013-04-03 23:12:00,
2013-04-03 18:22:00,46.0,45.0,29.71,NNW,336,2.0,8.0,95,0.08,,,1.17,,2013-04-03 23:22:00,
2013-04-03 18:32:00,47.0,46.0,29.74,NNW,339,3.0,8.0,95,0.09,,,1.18,,2013-04-03 23:32:00,
2013-04-03 18:42:00,47.0,46.0,29.74,NNW,339,3.0,8.0,95,0.09,,,1.18,,2013-04-03 23:42:00,
2013-04-03 18:53:00,47.0,46.0,29.75,WNW,299,2.0,7.0,96,0.11,,,1.20,,2013-04-03 23:53:00,
2013-04-03 19:03:00,47.0,46.0,29.75,WNW,292,1.0,9.0,96,0.11,,,1.23,,2013-04-04 00:03:00,
2013-04-03 19:12:00,47.0,46.0,29.75,WNW,292,1.0,9.0,96,0.11,,,1.23,,2013-04-04 00:12:00,
2013-04-03 19:22:00,47.0,46.0,29.75,NW,321,2.0,7.0,96,0.08,,,1.25,,2013-04-04 00:22:00,
2013-04-03 19:32:00,47.0,46.0,29.75,NW,317,5.0,13.0,96,0.08,,,1.27,,2013-04-04 00:32:00,
2013-04-03 19:43:00,47.0,46.0,29.75,NW,317,5.0,13.0,96,0.08,,,1.27,,2013-04-04 00:43:00,
2013-04-03 19:52:00,47.0,46.0,29.75,NNW,327,5.0,10.0,95,0.07,,,1.28,,2013-04-04 00:52:00,
2013-04-03 20:02:00,47.0,46.0,29.76,NW,309,2.0,10.0,95,0.05,,,1.28,,2013-04-04 01:02:00,
2013-04-03 20:12:00,47.0,46.0,29.76,NW,309,2.0,10.0,95,0.05,,,1.28,,2013-04-04 01:12:00,
2013-04-03 20:22:00,47.0,46.0,29.77,WNW,286,2.0,7.0,95,0.03,,,1.28,,2013-04-04 01:22:00,
2013-04-03 20:32:00,46.0,45.0,29.78,NW,310,2.0,6.0,95,0.01,,,1.28,,2013-04-04 01:32:00,
2013-04-03 20:43:00,46.0,45.0,29.78,NW,310,2.0,6.0,95,0.01,,,1.28,,2013-04-04 01:43:00,
2013-04-03 20:52:00,46.0,45.0,29.78,NW,317,3.0,8.0,95,0.01,,,1.29,,2013-04-04 01:52:00,
2013-04-03 21:02:00,45.0,44.0,29.78,NNW,327,4.0,11.0,95,0.01,,,1.29,,2013-04-04 02:02:00,
2013-04-03 21:12:00,45.0,44.0,29.78,NNW,327,4.0,11.0,95,0.01,,,1.29,,2013-04-04 02:12:00,
2013-04-03 21:22:00,45.0,43.0,29.78,NNW,343,3.0,9.0,94,0.01,,,1.29,,2013-04-04 02:22:00,
2013-04-03 21:32:00,45.0,44.0,29.79,WNW,297,4.0,9.0,95,0.01,,,1.29,,2013-04-04 02:32:00,
2013-04-03 21:42:00,45.0,44.0,29.79,WNW,297,4.0,9.0,95,0.01,,,1.29,,2013-04-04 02:42:00,
2013-04-03 21:52:00,45.0,44.0,29.79,WNW,297,4.0,9.0,95,0.01,,,1.29,,2013-04-04 02:52:00,
2013-04-03 22:02:00,44.0,43.0,29.80,NW,314,3.0,12.0,95,0.04,,,1.33,,2013-04-04 03:02:00,
2013-04-03 22:12:00,44.0,43.0,29.80,NW,314,3.0,12.0,95,0.04,,,1.33,,2013-04-04 03:12:00,
2013-04-03 22:22:00,44.0,43.0,29.81,NW,315,3.0,10.0,95,0.06,,,1.35,,2013-04-04 03:22:00,
2013-04-03 22:33:00,44.0,42.0,29.82,NNW,332,4.0,8.0,94,0.06,,,1.35,,2013-04-04 03:33:00,
2013-04-03 22:44:00,44.0,42.0,29.82,NNW,332,4.0,8.0,94,0.06,,,1.35,,2013-04-04 03:44:00,
2013-04-03 22:53:00,44.0,42.0,29.82,NNW,340,2.0,9.0,94,0.04,,,1.35,,2013-04-04 03:53:00,
2013-04-03 23:03:00,44.0,42.0,29.83,NNW,327,1.0,8.0,94,0.01,,,1.35,,2013-04-04 04:03:00,
2013-04-03 23:12:00,44.0,42.0,29.83,NNW,327,1.0,8.0,94,0.01,,,1.35,,2013-04-04 04:12:00,
2013-04-03 23:23:00,44.0,42.0,29.83,NNW,336,1.0,8.0,94,0.00,,,1.35,,2013-04-04 04:23:00,
2013-04-03 23:33:00,44.0,43.0,29.83,NW,323,0.0,4.0,95,0.02,,,1.36,,2013-04-04 04:33:00,
2013-04-03 23:43:00,44.0,43.0,29.83,NW,323,0.0,4.0,95,0.02,,,1.36,,2013-04-04 04:43:00,
2013-04-03 23:52:00,44.0,43.0,29.83,NW,315,3.0,9.0,95,0.02,,,1.36,,2013-04-04 04:52:00,